Waarnemingen

Advertentie
Mijn weer
Muret-Lherm, Frankrijk (7628): temperatuur & dauwpunt: 14.05.2019 05:00:00 - 20.05.2019 05:00:00 (CEST)Muret-Lherm, Frankrijk (7628): windsnelheid & windstoten: 14.05.2019 05:00:00 - 20.05.2019 05:00:00 (CEST)Muret-Lherm, Frankrijk (7628): windrichting: 14.05.2019 05:00:00 - 20.05.2019 05:00:00 (CEST)Muret-Lherm, Frankrijk (7628): luchtdruk: 14.05.2019 05:00:00 - 20.05.2019 05:00:00 (CEST)Muret-Lherm, Frankrijk (7628): zicht: 14.05.2019 05:00:00 - 20.05.2019 05:00:00 (CEST)Muret-Lherm, Frankrijk (7628): neerslag: 14.05.2019 05:00:00 - 20.05.2019 05:00:00 (CEST)
Datum & Tijd tt [°C] td [°C] ff [km/u] ff [kn] fx [km/u] fx [kn] dd ppp [hPa] vv [km] rr [mm]
20.05.2019 05:00:00 10,5 9,3 9 5 26 14 W 1013,8 16 0,0
20.05.2019 04:00:00 10,6 9,0 15 8 28 15 W 1013,9 18 0,0
20.05.2019 03:00:00 11,4 9,3 16 9 26 14 W 1014,2 20 0,0
20.05.2019 02:00:00 11,5 9,6 15 8 29 16 W 1014,3 20 -
20.05.2019 01:00:00 11,7 9,8 18 10 29 16 W 1014,4 19 0,0
20.05.2019 00:00:00 11,5 9,4 21 11 31 17 W 1014,2 20 0,0
19.05.2019 23:00:00 11,7 9,6 18 10 35 19 W 1014,1 20 -
19.05.2019 22:00:00 11,9 9,8 18 10 31 17 W 1013,3 20 0,0
19.05.2019 21:00:00 12,4 9,8 21 11 35 19 W 1012,6 20 0,0
19.05.2019 20:00:00 12,5 9,7 22 12 41 22 W 1012,2 20 -
19.05.2019 19:00:00 12,5 9,5 26 14 41 22 W 1011,8 20 0,0
19.05.2019 18:00:00 13,6 9,6 28 15 44 24 WNW 1011,4 20 0,0
19.05.2019 17:00:00 14,7 9,3 26 14 37 20 WNW 1011,1 20 0,0
19.05.2019 16:00:00 14,4 8,8 24 13 39 21 WNW 1011,0 20 0,0
19.05.2019 15:00:00 15,5 8,5 18 10 29 16 W 1010,6 20 0,0
19.05.2019 14:00:00 15,4 9,5 15 8 26 14 WNW 1010,6 20 -
19.05.2019 13:00:00 13,9 8,7 16 9 28 15 WNW 1010,7 20 0,0
19.05.2019 12:00:00 13,2 9,3 9 5 18 10 WNW 1011,0 20 0,0
19.05.2019 11:00:00 12,2 9,0 15 8 24 13 W 1010,9 20 0,0
19.05.2019 10:00:00 11,1 8,5 13 7 18 10 WNW 1010,9 20 0,0
19.05.2019 09:00:00 10,4 8,2 8 4 11 6 WNW 1010,8 20 0,0
19.05.2019 08:00:00 9,8 7,9 5 3 8 4 WNW 1010,7 20 -
19.05.2019 07:00:00 9,2 7,3 2 1 5 3 W 1010,4 20 0,0
19.05.2019 06:00:00 8,7 7,3 4 2 5 3 WZW 1010,1 20 0,0
19.05.2019 05:00:00 8,3 7,2 5 3 5 3 ZZW 1010,2 20 0,0
19.05.2019 04:00:00 7,8 6,9 4 2 8 4 Z 1010,3 20 0,0
19.05.2019 03:00:00 7,7 6,6 4 2 5 3 ZZO 1010,5 20 0,0
19.05.2019 02:00:00 7,2 5,8 5 3 11 6 ZZO 1010,9 20 -
19.05.2019 01:00:00 8,5 6,6 8 4 18 10 Z 1011,3 20 0,0
19.05.2019 00:00:00 8,7 6,7 11 6 18 10 WZW 1011,7 20 0,0
18.05.2019 23:00:00 9,6 6,9 9 5 22 12 W 1011,8 20 0,0
18.05.2019 22:00:00 10,8 6,9 16 9 28 15 WNW 1011,3 20 0,0
18.05.2019 21:00:00 11,8 8,1 13 7 28 15 WNW 1010,6 20 0,0
18.05.2019 20:00:00 12,8 8,3 21 11 41 22 WNW 1009,9 20 -
18.05.2019 19:00:00 13,8 8,0 26 14 39 21 W 1009,4 20 0,0
18.05.2019 18:00:00 14,1 7,4 26 14 44 24 W 1009,1 20 0,0
18.05.2019 17:00:00 15,5 9,4 26 14 39 21 W 1008,6 20 0,0
18.05.2019 16:00:00 15,7 9,6 22 12 41 22 NW 1008,3 20 0,0
18.05.2019 15:00:00 14,8 7,1 28 15 39 21 WNW 1008,4 20 0,0
18.05.2019 14:00:00 15,3 9,0 18 10 34 18 WNW 1008,4 20 -
18.05.2019 13:00:00 13,3 7,5 24 13 37 20 NW 1009,2 20 0,0
18.05.2019 12:00:00 14,2 7,9 24 13 39 21 W 1009,1 20 0,0
18.05.2019 11:00:00 13,1 7,3 28 15 44 24 W 1009,1 20 -
18.05.2019 10:00:00 12,4 8,1 26 14 44 24 W 1009,1 20 0,0
18.05.2019 09:00:00 10,6 7,3 28 15 41 22 W 1009,3 20 0,0
18.05.2019 08:00:00 10,1 7,5 21 11 34 18 W 1009,4 20 -
18.05.2019 07:00:00 9,8 7,6 21 11 31 17 W 1009,2 20 0,0
18.05.2019 06:00:00 9,8 7,6 21 11 31 17 W 1008,8 20 0,0
18.05.2019 05:00:00 9,9 8,0 18 10 29 16 W 1008,8 20 -
18.05.2019 04:00:00 10,1 8,2 18 10 31 17 W 1009,1 14 0,0
18.05.2019 03:00:00 10,4 8,3 18 10 34 18 W 1009,4 20 0,0
18.05.2019 02:00:00 10,9 9,0 18 10 29 16 W 1009,6 20 -
18.05.2019 01:00:00 10,9 9,0 18 10 31 17 WZW 1009,5 20 0,0
18.05.2019 00:00:00 10,8 9,1 16 9 28 15 WZW 1009,6 20 0,0
17.05.2019 23:00:00 10,3 8,6 18 10 31 17 WZW 1009,5 20 0,2
17.05.2019 22:00:00 10,5 8,4 21 11 54 29 W 1009,1 19 0,0
17.05.2019 21:00:00 11,7 8,4 29 16 44 24 W 1008,1 20 0,0
17.05.2019 20:00:00 12,6 9,6 26 14 39 21 W 1007,3 20 -
17.05.2019 19:00:00 12,9 10,4 21 11 39 21 W 1006,8 20 0,0
17.05.2019 18:00:00 12,5 10,4 21 11 41 22 W 1007,1 20 0,2
17.05.2019 17:00:00 12,4 10,5 21 11 42 23 W 1006,9 17 0,0
17.05.2019 16:00:00 12,7 10,2 24 13 41 22 WNW 1006,3 20 0,0
17.05.2019 15:00:00 12,2 10,3 26 14 41 22 W 1006,0 80 0,0
17.05.2019 14:00:00 12,9 10,3 24 13 41 22 WNW 1005,0 20 -
17.05.2019 13:00:00 12,4 10,8 22 12 34 18 W 1004,2 18 0,0
17.05.2019 12:00:00 11,8 10,2 22 12 34 18 WNW 1003,5 15 0,0
17.05.2019 11:00:00 12,1 10,8 18 10 29 16 W 1003,0 20 -
17.05.2019 10:00:00 11,6 10,7 15 8 26 14 NW 1002,7 13 1,0
17.05.2019 09:00:00 11,2 10,3 15 8 26 14 NNW 1002,8 10 1,0
17.05.2019 08:00:00 11,8 11,2 13 7 24 13 NNW 1002,2 8 -
17.05.2019 07:00:00 11,9 11,3 13 7 24 13 NNW 1002,2 3,3 5,0
17.05.2019 06:00:00 12,2 11,1 5 3 16 9 N 1002,0 5 1,0
17.05.2019 05:00:00 12,6 11,5 9 5 15 8 O 1002,4 9 -
17.05.2019 04:00:00 12,9 11,1 4 2 11 6 ONO 1003,2 10 0,2
17.05.2019 03:00:00 12,9 11,0 8 4 18 10 O 1004,1 20 0,0
17.05.2019 02:00:00 13,0 10,7 8 4 16 9 O 1004,8 20 -
17.05.2019 01:00:00 13,9 9,1 4 2 16 9 ZZO 1005,9 20 0,0
17.05.2019 00:00:00 14,6 8,3 11 6 22 12 ZZO 1006,4 20 0,0
16.05.2019 23:00:00 15,1 7,6 15 8 21 11 ZO 1006,7 20 0,0
16.05.2019 22:00:00 15,6 6,8 13 7 24 13 ZZO 1006,5 20 0,0
16.05.2019 21:00:00 17,7 6,8 15 8 29 16 ZO 1005,7 20 0,0
16.05.2019 20:00:00 19,9 6,9 13 7 24 13 OZO 1005,4 20 -
16.05.2019 19:00:00 21,6 5,9 8 4 15 8 NNO 1005,4 20 0,0
16.05.2019 18:00:00 23,4 5,3 5 3 18 10 ONO 1005,7 20 0,0
16.05.2019 17:00:00 23,5 6,7 4 2 15 8 N 1006,3 20 -
16.05.2019 16:00:00 21,6 5,5 5 3 16 9 ONO 1007,0 17 0,0
16.05.2019 15:00:00 22,1 4,6 8 4 16 9 NO 1008,0 20 0,0
16.05.2019 14:00:00 21,4 4,5 8 4 18 10 ONO 1008,6 20 -
16.05.2019 13:00:00 20,5 5,3 5 3 15 8 NO 1009,3 20 0,0
16.05.2019 12:00:00 19,7 6,4 9 5 15 8 ONO 1010,0 18 0,0
16.05.2019 11:00:00 17,7 6,8 5 3 15 8 O 1010,8 19 -
16.05.2019 10:00:00 15,1 7,6 2 1 8 4 NO 1011,6 80 0,0
16.05.2019 09:00:00 11,9 7,2 2 1 9 5 ZO 1012,1 17 0,0
16.05.2019 08:00:00 6,8 5,9 5 3 8 4 ZW 1012,6 15 -
16.05.2019 07:00:00 4,8 3,8 5 3 8 4 Z 1012,9 15 0,0
16.05.2019 06:00:00 4,8 4,1 8 4 11 6 ZZW 1012,9 14 0,0
16.05.2019 05:00:00 4,3 2,8 8 4 9 5 Z 1013,5 17 -
16.05.2019 04:00:00 5,8 3,8 0 0 4 2 N 1014,0 18 0,0
16.05.2019 03:00:00 6,6 3,7 2 1 4 2 Z 1014,3 18 0,0
16.05.2019 02:00:00 7,6 4,0 0 0 4 2 N 1014,6 19 -
16.05.2019 01:00:00 8,0 3,5 4 2 5 3 Z 1014,7 19 0,0
16.05.2019 00:00:00 10,3 3,6 0 0 9 5 N 1014,7 20 0,0
15.05.2019 23:00:00 12,1 3,6 4 2 9 5 WNW 1014,9 20 0,0
15.05.2019 22:00:00 14,2 3,6 8 4 8 4 WNW 1014,7 20 0,0
15.05.2019 21:00:00 18,1 3,2 5 3 13 7 NW 1013,9 20 0,0
15.05.2019 20:00:00 20,8 3,9 8 4 22 12 N 1013,3 20 -
15.05.2019 19:00:00 21,5 4,1 13 7 31 17 N 1013,2 20 0,0
15.05.2019 18:00:00 21,6 4,2 13 7 28 15 N 1013,2 19 0,0
15.05.2019 17:00:00 22,3 2,4 13 7 26 14 NNW 1013,2 19 -
15.05.2019 16:00:00 22,1 5,1 18 10 28 15 N 1013,4 18 0,0
15.05.2019 15:00:00 21,4 2,6 11 6 28 15 N 1013,9 18 0,0
15.05.2019 14:00:00 20,3 0,7 13 7 22 12 N 1014,3 19 -
15.05.2019 13:00:00 19,3 -0,7 11 6 21 11 NNO 1014,8 19 0,0
15.05.2019 12:00:00 18,6 4,4 11 6 18 10 NNW 1015,1 19 0,0
15.05.2019 11:00:00 16,9 3,6 5 3 16 9 N 1015,3 17 0,0
15.05.2019 10:00:00 15,0 4,7 8 4 13 7 N 1016,0 18 0,0
15.05.2019 09:00:00 12,5 5,6 5 3 8 4 N 1016,1 18 0,0
15.05.2019 08:00:00 7,7 6,2 4 2 9 5 ZZW 1016,5 - -
15.05.2019 07:00:00 4,5 3,2 4 2 8 4 ZW 1016,6 17 0,0
15.05.2019 06:00:00 4,7 3,4 4 2 8 4 ZZW 1016,4 18 0,0
15.05.2019 05:00:00 5,2 3,8 5 3 9 5 W 1016,3 18 0,0
15.05.2019 04:00:00 6,1 4,3 4 2 5 3 WZW 1016,0 19 0,0
15.05.2019 03:00:00 7,0 5,1 0 0 5 3 N 1016,2 20 0,0
15.05.2019 02:00:00 8,2 5,5 2 1 11 6 Z 1016,7 19 -
15.05.2019 01:00:00 9,5 5,9 8 4 11 6 ZZW 1016,9 20 0,0
15.05.2019 00:00:00 11,0 5,9 5 3 8 4 Z 1017,2 20 0,0
14.05.2019 23:00:00 12,4 6,2 5 3 11 6 WZW 1017,1 20 -
14.05.2019 22:00:00 15,5 5,7 8 4 15 8 WNW 1016,9 19 0,0
14.05.2019 21:00:00 18,2 5,4 9 5 15 8 W 1016,6 19 0,0
14.05.2019 20:00:00 21,2 5,9 9 5 15 8 NW 1016,2 20 -
14.05.2019 19:00:00 22,1 4,2 13 7 26 14 N 1016,4 20 0,0
14.05.2019 18:00:00 22,5 5,0 11 6 28 15 N 1016,4 19 0,0
14.05.2019 17:00:00 22,1 3,2 16 9 26 14 N 1016,8 18 0,0
14.05.2019 16:00:00 21,8 4,4 11 6 24 13 N 1017,3 20 0,0
14.05.2019 15:00:00 21,2 3,4 13 7 28 15 NNO 1017,9 15 0,0
14.05.2019 14:00:00 20,7 5,5 15 8 28 15 NNO 1018,4 19 -
14.05.2019 13:00:00 19,3 3,8 13 7 26 14 N 1019,1 19 0,0
14.05.2019 12:00:00 18,4 3,4 15 8 24 13 N 1019,7 19 0,0
14.05.2019 11:00:00 16,0 5,9 8 4 15 8 NNW 1020,6 20 0,0
14.05.2019 10:00:00 14,0 5,1 9 5 15 8 NNW 1021,2 20 0,0
14.05.2019 09:00:00 11,7 7,0 4 2 9 5 W 1021,9 19 0,0
14.05.2019 08:00:00 7,3 5,6 5 3 13 7 Z 1022,3 20 -
14.05.2019 07:00:00 4,4 3,4 9 5 13 7 Z 1022,9 20 0,0
14.05.2019 06:00:00 4,1 2,9 9 5 13 7 Z 1022,8 19 0,0
14.05.2019 05:00:00 4,8 3,5 8 4 13 7 Z 1023,0 20 -

tt = temperatuur
td = dauwpunt
ff = windsnelheid
fx = windstoten
dd = windrichting
ppp = luchtdruk
vv = zicht
rr = neerslag

Weerstations in de omgeving